Revelstoke, Canada 16 day weather forecast

Slopes altitude range 510 m - 2225m

Number of lifts: 4 Pistes: -1km

In some cases the lift and piste totals shown are for the ski domain (e.g. Three Valleys) rather than individual resort (e.g. Courchevel)

Overview

The 16 day weather forecast is fully updated 4 times every day.

    • Sun 23 SEP 2018
    • Sun 23
    • 3C 5C
    • Mon 24 SEP 2018
    • Mon 24
    • 0C 3C
    • Tue 25 SEP 2018
    • Tue 25
    • 0C 1C
    • Wed 26 SEP 2018
    • Wed 26
    • 1C 2C
    • Thu 27 SEP 2018
    • Thu 27
    • 2C 3C
    • Fri 28 SEP 2018
    • Fri 28
    • 7C 7C
    • Sat 29 SEP 2018
    • Sat 29
    • 2C 4C
    • Sun 30 SEP 2018
    • Sun 30
    • -5C -2C
    • Mon 01 OCT 2018
    • Mon 01
    • -4C -3C
    • Tue 02 OCT 2018
    • Tue 02
    • -5C -4C
    • Wed 03 OCT 2018
    • Wed 03
    • -5C 6C
    • Thu 04 OCT 2018
    • Thu 04
    • -3C 9C
    • Fri 05 OCT 2018
    • Fri 05
    • -2C 7C
    • Sat 06 OCT 2018
    • Sat 06
    • -2C 4C
    • Sun 07 OCT 2018
    • Sun 07
    • -2C 5C
    • Mon 08 OCT 2018
    • Mon 08
    • -1C 2C

Date:

Time Type 0°C level Temp Chill Snow Cloud Speed Gust Dir Press
3:00 2512m 5°C 5_2 0cm 99% 2mph 3mph 1011mB
6:00 2441m 4°C 4_2 0cm 94% 2mph 2mph 1012mB
9:00 2379m 4°C 4_2 0cm 99% 2mph 3mph 1012mB
12:00 2297m 5°C 5_3 0cm 88% 3mph 3mph 1013mB
15:00 2159m 4°C 4_3 0cm 76% 3mph 4mph 1015mB
18:00 2124m 7°C 7_4 0cm 74% 4mph 6mph 1014mB
21:00 2189m 7°C 7_5 0cm 71% 5mph 6mph 1014mB
0:00 2255m 7°C 7_4 0cm 73% 4mph 7mph 1013mB
3:00 2157m 2°C 2_2 0cm 50% 2mph 3mph 1017mB
6:00 2115m 1°C 1_1 0cm 37% 1mph 2mph 1019mB
9:00 2104m 0°C 0_2 0cm 26% 2mph 3mph 1020mB
12:00 2092m 3°C 3_3 0cm 59% 3mph 3mph 1020mB
15:00 2139m 3°C 3_5 0cm 91% 5mph 7mph 1021mB
18:00 2104m 6°C 6_4 0cm 91% 4mph 6mph 1019mB
21:00 2219m 6°C 6_5 0cm 52% 5mph 7mph 1019mB
0:00 2267m 6°C 6_4 0cm 51% 4mph 6mph 1019mB
3:00 2231m 2°C 2_2 0cm 3% 2mph 3mph 1024mB
6:00 2224m 1°C 1_2 0cm 1% 2mph 3mph 1026mB
9:00 2190m 0°C 0_2 0cm 0% 2mph 2mph 1027mB
12:00 2189m 1°C 1_1 0cm 44% 1mph 2mph 1027mB
15:00 2282m 3°C 3_1 0cm 96% 1mph 1mph 1027mB
18:00 2288m 11°C 11_3 0cm 78% 3mph 4mph 1024mB
21:00 2532m 11°C 11_4 0cm 0% 4mph 6mph 1022mB
0:00 2608m 11°C 11_3 0cm 2% 3mph 6mph 1021mB
3:00 2569m 3°C 3_2 0cm 49% 2mph 3mph 1024mB
6:00 2565m 2°C 2_1 0cm 57% 1mph 1mph 1026mB
9:00 2581m 2°C 2_1 0cm 66% 1mph 2mph 1026mB
12:00 2615m 2°C 2_1 0cm 66% 1mph 2mph 1025mB
15:00 2667m 4°C 4_2 0cm 99% 2mph 2mph 1025mB
18:00 2643m 12°C 12_4 0cm 99% 4mph 5mph 1021mB
21:00 2653m 12°C 12_5 0cm 91% 5mph 8mph 1018mB
0:00 2658m 11°C 11_4 0cm 94% 4mph 6mph 1018mB
3:00 2634m 5°C 5_2 0cm 100% 2mph 3mph 1020mB
6:00 2623m 3°C 3_2 0cm 96% 2mph 3mph 1021mB
9:00 2592m 3°C 3_2 0cm 99% 2mph 4mph 1021mB
12:00 2563m 3°C 3_3 0cm 96% 3mph 4mph 1022mB
15:00 2555m 5°C 5_2 0cm 78% 2mph 2mph 1022mB
18:00 2561m 12°C 12_3 0cm 70% 3mph 3mph 1018mB
21:00 2693m 12°C 12_4 0cm 83% 4mph 6mph 1015mB
0:00 2873m 12°C 12_4 0cm 82% 4mph 7mph 1013mB
3:00 3101m 8°C 8_3 0cm 97% 3mph 4mph 1013mB
6:00 3155m 7°C 7_3 0cm 98% 3mph 4mph 1012mB
9:00 3091m 7°C 7_4 0cm 99% 4mph 5mph 1012mB
12:00 2978m 7°C 7_3 0cm 98% 3mph 4mph 1012mB
15:00 2937m 7°C 7_3 0cm 8% 3mph 3mph 1013mB
18:00 3015m 14°C 14_5 0cm 5% 5mph 7mph 1012mB
21:00 3003m 14°C 14_5 0cm 2% 5mph 8mph 1012mB
0:00 3025m 12°C 12_5 0cm 8% 5mph 7mph 1011mB
3:00 3055m 6°C 6_6 0cm 54% 6mph 9mph 1013mB
6:00 3102m 3°C 3_5 0cm 60% 5mph 6mph 1013mB
9:00 3016m 3°C 3_4 0cm 26% 4mph 5mph 1012mB
12:00 2834m 4°C 4_5 0cm 18% 5mph 6mph 1012mB
15:00 2638m 4°C 4_4 0cm 13% 4mph 6mph 1012mB
18:00 2314m 6°C 6_6 0cm 52% 6mph 7mph 1012mB
21:00 2189m 6°C 6_7 0cm 79% 7mph 9mph 1013mB
0:00 1896m 4°C 4_6 0cm 90% 6mph 10mph 1014mB
3:00 1758m 2°C 2_5 1cm 100% 5mph 9mph 1018mB
6:00 1189m -2°C -2_6 1cm 82% 6mph 7mph 1020mB
9:00 852m -4°C -4_6 0cm 16% 6mph 7mph 1021mB
12:00 668m -2°C -2_6 0cm 8% 6mph 7mph 1022mB
15:00 837m -4°C -4_6 0cm 0% 6mph 8mph 1022mB
18:00 1588m 4°C 4_5 0cm 0% 5mph 6mph 1019mB
21:00 1840m 4°C 4_5 0cm 0% 5mph 4mph 1016mB
0:00 1845m 4°C 4_6 0cm 6% 6mph 6mph 1015mB
3:00 1203m -2°C -2_5 0cm 3% 5mph 6mph 1019mB
6:00 1026m -3°C -3_4 0cm 2% 4mph 6mph 1022mB
9:00 940m -3°C -3_4 0cm 2% 4mph 5mph 1023mB
12:00 822m -3°C -3_4 0cm 2% 4mph 5mph 1024mB
15:00 1013m -3°C -3_4 0cm 0% 4mph 6mph 1024mB
18:00 1558m 3°C 3_4 0cm 0% 4mph 4mph 1020mB
21:00 1685m 3°C 3_5 0cm 31% 5mph 5mph 1018mB
0:00 1684m 3°C 3_4 0cm 49% 4mph 5mph 1017mB
3:00 964m -3°C -3_4 0cm 11% 4mph 5mph 1021mB
6:00 807m -4°C -4_4 0cm 5% 4mph 5mph 1023mB
9:00 730m -5°C -5_4 0cm 0% 4mph 5mph 1025mB
12:00 637m -4°C -4_3 0cm 0% 3mph 4mph 1026mB
15:00 933m -4°C -4_2 0cm 0% 2mph 2mph 1026mB
18:00 1572m 5°C 5_2 0cm 0% 2mph 3mph 1022mB
Morning 0.322917mm 0 937m -4°C -4_3 0cm 0% 3mph 3mph 1026mB
Afternoon 0.0572917mm 0 1864m 6°C 6_3 0cm 2% 3mph 4mph 1024mB
Morning 0.0260417mm 0 1272m -2°C -2_4 0cm 55% 4mph 5mph 1027mB
Afternoon 0.3125mm 0 2560m 9°C 9_2 0cm 10% 2mph 4mph 1021mB
Morning 0.572917mm 0 1621m -1°C -1_1 0cm 2% 1mph 1mph 1023mB
Afternoon 0.28125mm 0 2617m 7°C 7_5 0cm 19% 5mph 8mph 1018mB
Morning 0.0208333mm 0 1692m 0°C 0_5 1cm 75% 5mph 8mph 1025mB
Afternoon 0.00520833mm 0 1694m 4°C 4_4 0cm 76% 4mph 5mph 1022mB
Morning 0.0520833mm 0 1207m -2°C -2_4 0cm 6% 4mph 4mph 1020mB
Afternoon 0.078125mm 0 2362m 5°C 5_5 0cm 82% 5mph 8mph 1010mB
Morning 0.015625mm 0 2019m 2°C 2_9 0cm 96% 9mph 19mph 1007mB
Afternoon 0.0208333mm 1.1875 1552m 2°C 2_9 10cm 82% 9mph 15mph 1011mB

16 day outlook at a glance

Forecast issued: 23/09/2018 05:11:28

Chat

Your comments and questions. In a resort? Let us know what it's like!


Characters left 250

For terms and conditions see Readers Comments on the Cookie and privacy policy page.